EST,Max TemperatureF,Mean TemperatureF,Min TemperatureF,Max Dew PointF,MeanDew PointF,Min DewpointF,Max Humidity, Mean Humidity, Min Humidity, Max Sea Level PressureIn, Mean Sea Level PressureIn, Min Sea Level PressureIn, Max VisibilityMiles, Mean VisibilityMiles, Min VisibilityMiles, Max Wind SpeedMPH, Mean Wind SpeedMPH, Max Gust SpeedMPH,PrecipitationIn, CloudCover, Events, WindDirDegrees
2013-1-1,27,25,22,19,15,11,75,63,50,30.19,30.13,30.04,10,10,7,15,6,18,T,7,Snow,322
2013-1-2,25,20,15,19,15,9,81,75,68,30.21,30.17,30.11,10,9,7,14,7,21,T,6,Snow,222
2013-1-3,31,22,13,25,19,7,88,78,67,30.22,30.14,30.07,10,6,0,16,8,22,T,7,Snow,229
2013-1-4,30,25,20,22,19,16,85,74,63,30.24,30.17,30.10,10,9,6,22,13,30,0.00,4,,233
2013-1-5,37,29,20,31,25,19,92,78,64,30.27,30.15,29.99,9,5,2,17,10,24,T,5,Snow,196
2013-1-6,35,33,31,31,28,23,89,77,64,30.31,30.05,29.89,10,7,2,21,11,25,T,7,Snow,273
2013-1-7,36,30,23,25,22,19,96,76,56,30.38,30.28,30.17,10,8,2,24,11,31,0.00,1,,202
2013-1-8,38,31,24,27,24,21,88,76,64,30.25,30.19,30.11,7,5,2,14,8,18,0.00,0,,179
2013-1-9,48,38,28,33,28,22,85,61,37,30.48,30.23,30.04,10,9,4,29,13,40,0.01,1,Rain,245
2013-1-10,43,33,22,35,28,22,92,75,57,30.56,30.40,30.09,10,8,2,14,6,23,0.25,2,Rain,138
2013-1-11,55,46,37,51,42,35,100,89,77,30.06,29.88,29.75,10,6,1,23,12,33,0.60,7,Rain,168
2013-1-12,58,49,39,48,43,32,93,78,62,29.96,29.88,29.80,10,9,3,16,9,22,0.26,1,Rain,226
2013-1-13,39,32,24,37,31,19,100,89,78,30.14,29.93,29.83,10,4,1,20,9,25,0.42,8,Rain-Snow,311
2013-1-14,25,22,18,19,16,13,84,76,68,30.46,30.35,30.13,10,9,4,18,8,25,T,7,Snow,276
2013-1-15,29,21,12,20,15,9,92,75,58,30.45,30.36,30.18,10,8,4,7,1,9,0.00,1,,154
2013-1-16,35,25,15,28,19,13,92,70,47,30.12,29.97,29.82,10,8,5,23,10,31,T,4,Snow,234
2013-1-17,35,29,22,28,19,11,75,63,51,30.36,30.23,30.03,10,10,6,25,11,32,T,5,Snow,303
2013-1-18,39,30,20,25,19,13,81,67,53,30.43,30.24,29.96,10,10,10,29,14,37,0.00,4,,204
2013-1-19,47,42,36,35,30,25,75,65,54,29.96,29.84,29.66,10,10,10,33,17,48,0.00,3,,221
2013-1-20,41,29,17,18,12,9,77,59,40,30.25,30.08,29.71,10,4,0,40,14,53,T,8,Fog-Snow,293
2013-1-21,19,13,7,13,7,0,88,75,61,30.19,30.08,30.01,10,2,0,25,12,33,0.03,7,Fog-Snow,276
2013-1-22,11,5,-1,4,1,-4,88,77,66,30.33,30.25,30.13,8,2,1,22,8,28,T,8,Snow,266
2013-1-23,17,12,6,14,7,1,88,78,67,30.32,30.18,30.04,9,2,0,22,9,28,0.04,8,Fog-Snow,229
2013-1-24,17,9,1,7,1,-3,95,69,43,30.64,30.51,30.16,10,10,4,17,4,20,T,1,,19
2013-1-25,24,19,14,21,14,2,96,75,53,30.47,30.13,29.97,10,4,1,14,7,17,0.01,8,Snow,182
2013-1-26,28,25,21,21,18,14,92,77,62,30.47,30.25,30.04,10,6,2,14,5,18,T,7,Snow,323
2013-1-27,32,23,13,30,22,14,92,78,63,30.45,30.26,30.03,10,5,0,24,8,33,0.19,7,Fog-Rain-Snow-Thunderstorm,144
2013-1-28,45,39,32,45,38,30,100,95,89,30.04,29.94,29.85,5,2,0,15,8,23,0.08,8,Fog-Rain,218
2013-1-29,58,47,35,55,48,35,100,97,93,29.96,29.71,29.40,7,2,0,23,12,32,0.72,8,Fog-Rain-Thunderstorm,174
2013-1-30,56,42,27,55,43,21,100,89,78,29.41,29.30,29.15,10,3,0,30,10,37,0.77,8,Fog-Rain-Snow,247
2013-1-31,27,21,15,25,15,10,92,83,73,29.98,29.67,29.41,3,1,0,24,15,31,0.02,8,Fog-Snow,274